FW4703 Weather Reports


Display with metric or nautical units.
time (UTC)temp
F
wind
direction
speed
MPH
gust
MPH
rain 1hr
in
rain 24hr
in
rain mn
in
humidity
%
barometer
mb
20260510230514 84 352 2.0 4.0 0.00 0.03 0.00 79 1015.6
20260510230035 84 350 2.0 4.0 0.00 0.03 0.00 78 1015.5
20260510225518 84 323 2.0 5.0 0.00 0.03 0.00 77 1015.6
20260510225014 85 296 2.0 7.0 0.00 0.03 0.00 77 1015.6
20260510224530 85 310 2.0 7.0 0.00 0.03 0.00 76 1015.8
20260510224014 85 329 2.0 7.0 0.00 0.03 0.00 76 1015.7
20260510223517 86 14 2.0 5.0 0.00 0.03 0.00 75 1015.6
20260510223030 86 233 2.0 6.0 0.00 0.03 0.00 75 1015.6
20260510222517 86 305 2.0 6.0 0.00 0.03 0.00 74 1015.7
20260510222017 87 259 2.0 5.0 0.00 0.03 0.00 74 1015.7
20260510221536 87 250 2.0 4.0 0.00 0.03 0.00 73 1015.7
20260510221021 87 346 2.0 4.0 0.00 0.03 0.00 73 1015.7
20260510220515 87 331 2.0 4.0 0.00 0.03 0.00 72 1015.8
20260510220032 88 315 2.0 4.0 0.00 0.03 0.00 72 1015.8
20260510215515 88 297 1.0 4.0 0.00 0.03 0.00 72 1015.7
20260510215015 88 276 1.0 7.0 0.00 0.03 0.00 71 1015.7
20260510214537 88 317 2.0 7.0 0.00 0.03 0.00 71 1015.7
20260510214014 88 257 2.0 5.0 0.00 0.03 0.00 71 1015.6
20260510213517 88 332 1.0 5.0 0.00 0.03 0.00 71 1015.7
20260510213030 88 315 1.0 5.0 0.00 0.03 0.00 71 1015.7
20260510212514 88 271 2.0 7.0 0.00 0.03 0.00 70 1015.7
20260510212019 89 279 2.0 8.0 0.00 0.03 0.00 70 1015.7
20260510211532 89 294 2.0 8.0 0.00 0.03 0.00 69 1015.8
20260510211015 89 284 2.0 9.0 0.00 0.03 0.00 68 1015.7
20260510210516 90 0 2.0 9.0 0.00 0.03 0.00 67 1015.7
20260510210032 91 280 1.0 10.0 0.00 0.03 0.00 67 1015.7
20260510205515 91 291 4.0 10.0 0.00 0.03 0.00 66 1015.7
20260510205016 91 310 1.0 9.0 0.00 0.03 0.00 66 1015.7
20260510204532 91 299 1.0 9.0 0.00 0.03 0.00 66 1015.6
20260510204016 91 278 3.0 8.0 0.00 0.03 0.00 65 1015.7
20260510203514 92 304 1.0 6.0 0.00 0.03 0.00 66 1015.7
20260510203031 91 279 1.0 9.0 0.00 0.03 0.00 65 1015.7
20260510202514 91 269 1.0 9.0 0.00 0.03 0.00 65 1015.8
20260510202016 91 277 2.0 8.0 0.00 0.03 0.00 66 1015.8
20260510201534 91 254 1.0 8.0 0.00 0.03 0.00 65 1015.8
20260510201014 91 232 2.0 8.0 0.00 0.03 0.00 64 1015.6
20260510200515 91 276 1.0 7.0 0.00 0.03 0.00 64 1015.6
20260510200034 91 272 1.0 8.0 0.00 0.03 0.00 64 1015.7
20260510195514 91 271 1.0 8.0 0.00 0.03 0.00 61 1015.7
20260510195014 92 269 4.0 8.0 0.00 0.03 0.00 59 1015.7
20260510194542 92 296 0.0 8.0 0.00 0.03 0.00 59 1015.8
20260510194018 93 280 2.0 7.0 0.00 0.03 0.00 58 1015.9
20260510193515 93 254 1.0 5.0 0.00 0.03 0.00 58 1015.8
20260510193029 93 325 2.0 6.0 0.00 0.03 0.00 57 1015.8
20260510192514 94 304 1.0 6.0 0.00 0.03 0.00 57 1015.8
20260510192015 94 297 1.0 6.0 0.00 0.03 0.00 57 1016.0
20260510191533 94 254 1.0 6.0 0.00 0.03 0.00 54 1016.0
20260510191014 94 351 0.0 9.0 0.00 0.03 0.00 55 1016.0
20260510190514 93 320 0.0 9.0 0.00 0.03 0.00 55 1016.1
20260510190033 93 275 2.0 7.0 0.00 0.03 0.00 56 1016.1
20260510185515 93 352 1.0 4.0 0.00 0.03 0.00 57 1016.2
20260510185018 93 284 1.0 8.0 0.00 0.03 0.00 56 1016.1
20260510184530 94 263 2.0 8.0 0.00 0.03 0.00 56 1016.2
20260510184015 94 255 3.0 7.0 0.00 0.03 0.00 57 1016.1
20260510183515 94 219 2.0 7.0 0.00 0.03 0.00 59 1016.1
20260510183030 94 0 1.0 6.0 0.00 0.03 0.00 58 1016.1
20260510182514 94 281 1.0 4.0 0.00 0.03 0.00 57 1016.2
20260510182015 95 121 1.0 4.0 0.00 0.03 0.00 57 1016.2
20260510181530 95 105 1.0 4.0 0.00 0.03 0.00 59 1016.1
20260510181015 95 319 1.0 7.0 0.00 0.03 0.00 58 1016.2
20260510180517 95 296 1.0 7.0 0.00 0.03 0.00 57 1016.2
20260510180037 95 169 1.0 7.0 0.00 0.03 0.00 57 1016.2
20260510175514 96 256 1.0 9.0 0.00 0.03 0.00 57 1016.4
20260510175017 95 194 1.0 10.0 0.00 0.03 0.00 59 1016.4
20260510174533 95 118 3.0 10.0 0.00 0.03 0.00 58 1016.3
20260510174014 94 299 0.0 7.0 0.00 0.03 0.00 60 1016.3
20260510173519 94 278 3.0 7.0 0.00 0.03 0.00 59 1016.4
20260510173032 94 142 1.0 7.0 0.00 0.03 0.00 59 1016.4
20260510172515 94 133 3.0 7.0 0.00 0.03 0.00 58 1016.3
20260510172015 94 168 1.0 5.0 0.00 0.03 0.00 59 1016.4
20260510171530 94 152 2.0 8.0 0.00 0.03 0.00 59 1016.4
20260510171014 94 167 2.0 8.0 0.00 0.03 0.00 60 1016.6
20260510170516 94 351 2.0 8.0 0.00 0.03 0.00 60 1016.6
20260510170031 94 169 2.0 8.0 0.00 0.03 0.00 62 1016.8
20260510165514 94 102 1.0 7.0 0.00 0.03 0.00 62 1016.8
20260510165016 93 0 2.0 6.0 0.00 0.03 0.00 63 1016.9
20260510164539 93 163 2.0 6.0 0.00 0.03 0.00 63 1016.9
20260510164014 92 279 2.0 7.0 0.00 0.03 0.00 63 1017.0
20260510163517 92 252 1.0 7.0 0.00 0.03 0.00 65 1017.0
20260510163031 91 118 2.0 7.0 0.00 0.03 0.00 66 1017.0
20260510162515 91 200 2.0 5.0 0.00 0.03 0.00 66 1017.0
20260510162019 90 153 2.0 7.0 0.00 0.03 0.00 70 1016.9
20260510161538 89 146 2.0 7.0 0.00 0.03 0.00 70 1017.0
20260510161015 88 180 3.0 7.0 0.00 0.03 0.00 71 1017.1
20260510160515 88 192 2.0 7.0 0.00 0.03 0.00 73 1017.1
20260510160038 88 167 2.0 6.0 0.00 0.03 0.00 75 1017.1
20260510155525 88 190 2.0 6.0 0.00 0.03 0.00 75 1017.1
20260510155016 89 39 1.0 6.0 0.00 0.03 0.00 75 1017.0
20260510154535 89 168 1.0 3.0 0.00 0.03 0.00 75 1017.0
20260510154015 89 158 1.0 5.0 0.00 0.03 0.00 76 1017.0
20260510153518 88 157 1.0 5.0 0.00 0.03 0.00 76 1017.0
20260510153041 88 178 2.0 7.0 0.00 0.03 0.00 77 1017.0
20260510152520 88 161 1.0 7.0 0.00 0.03 0.00 77 1017.0
20260510152015 88 162 3.0 7.0 0.00 0.03 0.00 75 1016.9
20260510151535 88 153 2.0 6.0 0.00 0.03 0.00 74 1016.9
20260510151015 89 169 2.0 6.0 0.00 0.03 0.00 75 1016.9
20260510150515 89 147 1.0 8.0 0.00 0.03 0.00 75 1017.0
20260510150033 89 142 2.0 8.0 0.00 0.03 0.00 76 1017.1
20260510145517 88 144 1.0 6.0 0.00 0.03 0.00 76 1017.0
20260510145016 88 147 1.0 4.0 0.00 0.03 0.00 77 1017.0
20260510144541 87 164 2.0 5.0 0.00 0.03 0.00 77 1017.0
20260510144021 87 184 2.0 5.0 0.00 0.03 0.00 77 1017.0
20260510143514 87 181 2.0 5.0 0.00 0.03 0.00 78 1016.9
20260510143048 87 152 1.0 7.0 0.00 0.03 0.00 79 1016.9
20260510142515 86 149 2.0 8.0 0.00 0.03 0.00 79 1016.8
20260510142014 86 180 2.0 8.0 0.00 0.03 0.00 79 1016.8
20260510141537 86 161 3.0 7.0 0.00 0.03 0.00 80 1016.8
20260510141014 85 160 2.0 4.0 0.00 0.03 0.00 81 1016.8
20260510140513 85 155 2.0 5.0 0.00 0.03 0.00 81 1016.8
20260510140032 85 149 1.0 5.0 0.00 0.03 0.00 81 1016.7
20260510135521 84 175 2.0 5.0 0.00 0.03 0.00 82 1016.6
20260510135017 84 0 1.0 5.0 0.00 0.03 0.00 82 1016.4
20260510134531 83 188 1.0 6.0 0.00 0.03 0.00 83 1016.4
20260510134014 83 173 1.0 6.0 0.00 0.03 0.00 84 1016.2
20260510133516 83 194 3.0 6.0 0.00 0.03 0.00 84 1016.3
20260510133036 82 177 2.0 6.0 0.00 0.03 0.00 85 1016.2
20260510132514 82 156 1.0 6.0 0.00 0.03 0.00 86 1016.2
20260510132017 81 157 2.0 6.0 0.00 0.03 0.00 87 1016.2
20260510131536 81 184 1.0 5.0 0.00 0.03 0.00 87 1016.2
20260510131014 80 159 2.0 5.0 0.00 0.03 0.00 88 1016.2
20260510130514 80 156 2.0 5.0 0.00 0.03 0.00 89 1016.2
20260510130035 79 167 2.0 6.0 0.00 0.03 0.00 90 1016.2
20260510125514 79 176 2.0 6.0 0.00 0.03 0.00 90 1016.1
20260510125016 78 179 2.0 5.0 0.00 0.03 0.00 91 1016.1
20260510124532 78 171 1.0 5.0 0.00 0.03 0.00 91 1016.1
20260510124015 78 168 1.0 5.0 0.00 0.03 0.00 91 1016.0
20260510123519 77 171 1.0 4.0 0.00 0.03 0.00 92 1016.0
20260510123034 77 173 1.0 4.0 0.00 0.03 0.00 92 1015.9
20260510122516 77 159 1.0 2.0 0.00 0.03 0.00 92 1016.0
20260510122018 77 161 1.0 2.0 0.00 0.03 0.00 92 1015.9
20260510121532 77 159 1.0 4.0 0.00 0.03 0.00 92 1015.9
20260510121017 77 161 1.0 4.0 0.00 0.03 0.00 92 1015.9
20260510120521 77 159 1.0 4.0 0.00 0.03 0.00 92 1015.8
20260510120030 77 158 1.0 2.0 0.00 0.03 0.00 92 1015.8
20260510115514 77 158 0.0 2.0 0.00 0.03 0.00 92 1015.7
20260510115016 77 158 0.0 2.0 0.00 0.03 0.00 93 1015.7
20260510114532 77 0 0.0 2.0 0.00 0.03 0.00 93 1015.5
20260510114017 77 0 0.0 2.0 0.00 0.03 0.00 93 1015.3
20260510113517 77 0 0.0 2.0 0.00 0.03 0.00 93 1015.3
20260510113030 77 0 0.0 2.0 0.00 0.03 0.00 93 1015.1
20260510112517 77 0 0.0 1.0 0.00 0.03 0.00 93 1015.1
20260510112017 77 0 0.0 2.0 0.00 0.03 0.00 93 1015.1
20260510111532 77 0 0.0 2.0 0.00 0.03 0.00 93 1015.0
20260510111016 77 158 0.0 2.0 0.00 0.03 0.00 93 1014.8
20260510110516 77 157 1.0 3.0 0.00 0.03 0.00 93 1014.7
20260510110031 77 157 1.0 3.0 0.00 0.03 0.00 93 1014.7
20260510105516 77 155 1.0 2.0 0.00 0.03 0.00 93 1014.6
20260510105016 77 155 0.0 2.0 0.00 0.03 0.00 93 1014.5
20260510104540 77 155 0.0 2.0 0.00 0.03 0.00 93 1014.5
20260510104018 77 155 0.0 4.0 0.00 0.03 0.00 93 1014.2
20260510103515 77 155 1.0 5.0 0.00 0.03 0.00 93 1014.2
20260510103034 77 163 1.0 5.0 0.00 0.03 0.00 93 1014.1
20260510102516 77 161 1.0 5.0 0.00 0.03 0.00 93 1014.0
20260510102020 77 167 0.0 4.0 0.00 0.03 0.00 93 1013.9
20260510101534 77 167 0.0 4.0 0.00 0.03 0.00 93 1013.9
20260510101018 77 0 0.0 0.0 0.00 0.03 0.00 93 1013.7
20260510100517 77 0 0.0 1.0 0.00 0.03 0.00 93 1013.8
20260510100032 77 0 0.0 1.0 0.00 0.03 0.00 93 1013.5
20260510095517 77 0 0.0 1.0 0.00 0.03 0.00 93 1013.6
20260510095016 77 0 0.0 2.0 0.00 0.03 0.00 93 1013.5
20260510094535 77 0 0.0 2.0 0.00 0.03 0.00 93 1013.6
20260510094015 77 0 0.0 1.0 0.00 0.03 0.00 93 1013.7
20260510093515 77 0 0.0 2.0 0.00 0.03 0.00 93 1013.7
20260510093038 77 0 0.0 2.0 0.00 0.03 0.00 93 1013.7
20260510092517 77 187 0.0 2.0 0.00 0.03 0.00 93 1013.8
20260510092015 77 0 0.0 2.0 0.00 0.03 0.00 93 1013.7
20260510091534 77 187 0.0 2.0 0.00 0.03 0.00 93 1013.6
20260510091014 77 0 0.0 2.0 0.00 0.03 0.00 93 1013.5
20260510090517 77 0 0.0 2.0 0.00 0.03 0.00 93 1013.5
20260510090030 77 187 0.0 2.0 0.00 0.03 0.00 93 1013.4
20260510085516 77 187 0.0 2.0 0.00 0.03 0.00 93 1013.2
20260510085020 77 187 1.0 2.0 0.00 0.03 0.00 93 1013.3
20260510084532 77 0 0.0 2.0 0.00 0.03 0.00 93 1013.2
20260510084017 78 0 0.0 2.0 0.00 0.03 0.00 93 1013.2
20260510083518 78 188 0.0 2.0 0.00 0.03 0.00 93 1013.2
20260510083038 78 188 1.0 2.0 0.00 0.03 0.00 93 1013.1
20260510082515 78 188 0.0 2.0 0.00 0.03 0.00 93 1013.2
20260510082016 78 188 0.0 2.0 0.00 0.03 0.00 93 1013.2
20260510081539 78 0 0.0 2.0 0.00 0.03 0.00 92 1013.3
20260510081014 78 0 0.0 2.0 0.00 0.03 0.00 92 1013.4
20260510080515 78 0 0.0 2.0 0.00 0.03 0.00 92 1013.4
20260510080033 78 0 0.0 0.0 0.00 0.03 0.00 92 1013.5
20260510075518 78 0 0.0 0.0 0.00 0.03 0.00 92 1013.4
20260510075017 78 0 0.0 1.0 0.00 0.03 0.00 92 1013.4
20260510074537 78 0 0.0 2.0 0.00 0.03 0.00 92 1013.4
20260510074019 78 0 0.0 2.0 0.00 0.03 0.00 92 1013.3
20260510073518 78 0 0.0 2.0 0.00 0.03 0.00 92 1013.3
20260510073042 78 0 0.0 1.0 0.00 0.03 0.00 92 1013.3
20260510072526 78 0 0.0 1.0 0.00 0.03 0.00 92 1013.3
20260510072017 78 0 0.0 1.0 0.00 0.03 0.00 92 1013.3
20260510071535 78 0 0.0 1.0 0.00 0.03 0.00 92 1013.4
20260510071016 78 0 0.0 0.0 0.00 0.03 0.00 92 1013.5
20260510070516 78 0 0.0 0.0 0.00 0.03 0.00 92 1013.6
20260510070036 78 0 0.0 2.0 0.00 0.03 0.00 92 1013.5
20260510065513 78 0 0.0 2.0 0.00 0.03 0.00 92 1013.6
20260510065017 78 0 0.0 2.0 0.00 0.03 0.00 92 1013.5
20260510064546 78 0 0.0 2.0 0.00 0.03 0.00 92 1013.5
20260510064016 78 0 0.0 2.0 0.00 0.03 0.00 92 1013.8
20260510063517 78 0 0.0 2.0 0.00 0.03 0.00 92 1013.7
20260510063039 78 188 0.0 2.0 0.00 0.03 0.00 92 1013.8
20260510062514 78 188 0.0 2.0 0.00 0.03 0.00 92 1013.8
20260510062022 78 0 0.0 2.0 0.00 0.03 0.00 92 1013.9
20260510061535 78 0 0.0 2.0 0.00 0.03 0.00 92 1013.9
20260510061017 79 188 0.0 2.0 0.00 0.03 0.00 92 1014.2
20260510060517 78 188 0.0 2.0 0.00 0.03 0.00 92 1014.3
20260510060041 78 0 0.0 0.0 0.00 0.03 0.00 92 1014.3
20260510055516 79 0 0.0 0.0 0.00 0.03 0.00 91 1014.6
20260510055015 78 0 0.0 0.0 0.00 0.03 0.00 91 1014.6
20260510054535 78 0 0.0 0.0 0.00 0.03 0.00 91 1014.7
20260510054019 78 0 0.0 0.0 0.00 0.03 0.00 91 1014.6
20260510053516 78 0 0.0 0.0 0.00 0.03 0.00 91 1014.8
20260510053042 78 0 0.0 0.0 0.00 0.03 0.00 91 1014.8
20260510052517 78 0 0.0 0.0 0.00 0.03 0.00 91 1014.9
20260510052020 78 0 0.0 1.0 0.00 0.03 0.00 91 1014.8
20260510051530 78 0 0.0 1.0 0.00 0.03 0.00 91 1014.9
20260510051019 78 188 0.0 1.0 0.00 0.03 0.00 90 1014.8
20260510050517 78 0 0.0 0.0 0.00 0.03 0.00 90 1014.7
20260510050033 78 0 0.0 0.0 0.00 0.03 0.00 90 1014.9
20260510045517 78 0 0.0 0.0 0.00 0.03 0.00 90 1014.9
20260510045017 78 0 0.0 0.0 0.00 0.03 0.00 90 1014.9
20260510044544 78 0 0.0 0.0 0.00 0.03 0.00 90 1014.9
20260510044013 78 0 0.0 0.0 0.00 0.03 0.00 90 1014.9
20260510043516 78 0 0.0 0.0 0.00 0.03 0.00 90 1014.8
20260510043037 78 0 0.0 0.0 0.00 0.03 0.00 90 1015.0
20260510042517 78 0 0.0 0.0 0.00 0.03 0.00 90 1015.0
20260510042016 78 0 0.0 0.0 0.00 0.03 0.00 89 1015.0
20260510041534 78 0 0.0 0.0 0.00 0.03 0.00 89 1015.0
20260510041016 78 0 0.0 0.0 0.00 0.03 0.00 89 1014.9
20260510040519 78 0 0.0 0.0 0.00 0.03 0.00 89 1015.0
20260510040040 78 0 0.0 0.0 0.00 0.03 0.00 89 1015.1
20260510035515 78 0 0.0 0.0 0.00 0.03 0.03 89 1014.9
20260510035018 78 0 0.0 2.0 0.00 0.03 0.03 89 1014.7
20260510034532 79 0 0.0 2.0 0.00 0.03 0.03 89 1014.7
20260510034017 79 0 0.0 0.0 0.00 0.03 0.03 89 1014.8
20260510033515 79 0 0.0 0.0 0.00 0.03 0.03 89 1014.7
20260510033047 79 0 0.0 0.0 0.00 0.03 0.03 89 1014.7
20260510032515 79 0 0.0 0.0 0.00 0.03 0.03 88 1014.8
20260510032018 79 0 0.0 0.0 0.00 0.03 0.03 88 1014.8
20260510031532 79 0 0.0 0.0 0.00 0.03 0.03 88 1015.0
20260510031015 79 0 0.0 0.0 0.00 0.03 0.03 88 1014.9
20260510030524 79 0 0.0 0.0 0.00 0.03 0.03 88 1014.7
20260510030043 79 0 0.0 0.0 0.00 0.03 0.03 87 1014.7
20260510025515 79 0 0.0 0.0 0.00 0.03 0.03 87 1014.7
20260510025018 79 0 0.0 0.0 0.00 0.03 0.03 87 1014.7
20260510024534 79 0 0.0 0.0 0.00 0.03 0.03 87 1014.7
20260510024015 79 0 0.0 0.0 0.00 0.03 0.03 86 1014.6
20260510023516 80 0 0.0 0.0 0.00 0.03 0.03 86 1014.7
20260510023030 80 0 0.0 2.0 0.00 0.03 0.03 86 1014.7
20260510022516 80 0 0.0 2.0 0.00 0.03 0.03 86 1014.6
20260510022015 80 0 0.0 2.0 0.03 0.03 0.03 86 1014.5
20260510021534 80 188 0.0 2.0 0.03 0.03 0.03 86 1014.4
20260510021015 80 0 0.0 2.0 0.03 0.03 0.03 85 1014.5
20260510020515 81 0 0.0 2.0 0.03 0.03 0.03 85 1014.4
20260510020032 81 175 0.0 2.0 0.03 0.03 0.03 84 1014.4
20260510015516 81 0 0.0 2.0 0.03 0.03 0.03 84 1014.3
20260510015024 81 0 0.0 2.0 0.03 0.03 0.03 84 1014.3
20260510014538 81 0 0.0 2.0 0.03 0.03 0.03 84 1014.2
20260510014016 82 0 0.0 2.0 0.03 0.03 0.03 83 1014.2
20260510013515 82 0 0.0 2.0 0.03 0.03 0.03 83 1014.2
20260510013034 82 0 0.0 1.0 0.03 0.03 0.03 82 1014.2
20260510012516 82 0 0.0 2.0 0.02 0.02 0.02 81 1014.0
20260510012016 82 0 0.0 2.0 0.00 0.00 0.00 81 1014.1
20260510011532 82 0 0.0 4.0 0.00 0.00 0.00 80 1014.1
20260510011015 82 163 0.0 4.0 0.00 0.00 0.00 80 1014.2
20260510010516 82 274 0.0 2.0 0.00 0.00 0.00 80 1013.9
20260510010032 82 274 0.0 2.0 0.00 0.00 0.00 79 1013.9
20260510005515 82 274 0.0 2.0 0.00 0.00 0.00 79 1013.7
20260510005015 82 275 0.0 2.0 0.00 0.00 0.00 78 1013.6
20260510004531 82 277 0.0 2.0 0.00 0.00 0.00 78 1013.6
20260510004016 82 0 0.0 2.0 0.00 0.00 0.00 77 1013.4
20260510003515 82 0 0.0 3.0 0.00 0.00 0.00 77 1013.4
20260510003040 83 0 0.0 4.0 0.00 0.00 0.00 76 1013.4
20260510002515 83 283 0.0 4.0 0.00 0.00 0.00 76 1013.4
20260510002020 83 0 0.0 4.0 0.00 0.00 0.00 76 1013.4
20260510001530 83 0 1.0 4.0 0.00 0.00 0.00 75 1013.4
20260510001015 83 271 0.0 2.0 0.00 0.00 0.00 75 1013.3
20260510000515 83 0 0.0 2.0 0.00 0.00 0.00 74 1013.1
20260510000035 84 0 0.0 4.0 0.00 0.00 0.00 74 1013.2
20260509235515 84 0 1.0 4.0 0.00 0.00 0.00 74 1013.1
20260509235019 84 290 0.0 3.0 0.00 0.00 0.00 74 1013.0
20260509234542 84 0 0.0 2.0 0.00 0.00 0.00 73 1013.0
20260509234016 85 0 0.0 2.0 0.00 0.00 0.00 73 1012.9
20260509233515 85 0 0.0 2.0 0.00 0.00 0.00 73 1013.0
20260509233032 85 0 0.0 2.0 0.00 0.00 0.00 73 1013.1
20260509232516 85 292 0.0 2.0 0.00 0.00 0.00 72 1013.0
20260509232016 86 292 0.0 2.0 0.00 0.00 0.00 71 1013.1
20260509231536 86 0 0.0 6.0 0.00 0.00 0.00 71 1013.1
20260509231017 86 0 1.0 6.0 0.00 0.00 0.00 71 1013.0